TimeEDT,TemperatureF,Dew PointF,Humidity,Sea Level PressureIn,VisibilityMPH,Wind Direction,Wind SpeedMPH,Gust SpeedMPH,PrecipitationIn,Events,Conditions,WindDirDegrees,DateUTC
12:54 AM,17.1,-0.9,45,30.37,10.0,Calm,Calm,-,N/A,,Clear,0,2013-03-18 04:54:00
1:54 AM,15.1,1.0,54,30.39,10.0,Calm,Calm,-,N/A,,Clear,0,2013-03-18 05:54:00
2:54 AM,12.0,1.9,64,30.40,10.0,West,3.5,-,N/A,,Clear,270,2013-03-18 06:54:00
3:54 AM,10.0,1.9,70,30.40,10.0,Calm,Calm,-,N/A,,Clear,0,2013-03-18 07:54:00
4:54 AM,10.0,1.0,67,30.42,10.0,Calm,Calm,-,N/A,,Clear,0,2013-03-18 08:54:00
5:54 AM,8.1,1.0,73,30.44,10.0,Calm,Calm,-,N/A,,Clear,0,2013-03-18 09:54:00
6:54 AM,8.1,1.0,73,30.47,10.0,Calm,Calm,-,N/A,,Clear,0,2013-03-18 10:54:00
7:54 AM,10.0,1.9,70,30.48,10.0,Calm,Calm,-,N/A,,Clear,0,2013-03-18 11:54:00
8:54 AM,12.9,3.0,65,30.47,10.0,Calm,Calm,-,N/A,,Clear,0,2013-03-18 12:54:00
9:54 AM,19.0,1.0,46,30.47,10.0,Calm,Calm,-,N/A,,Clear,0,2013-03-18 13:54:00
10:54 AM,23.0,-0.9,35,30.45,10.0,Calm,Calm,-,N/A,,Clear,0,2013-03-18 14:54:00
11:54 AM,27.0,1.9,34,30.42,10.0,Calm,Calm,-,N/A,,Clear,0,2013-03-18 15:54:00
12:54 PM,28.9,3.0,33,30.40,10.0,Calm,Calm,-,N/A,,Clear,0,2013-03-18 16:54:00
1:54 PM,30.9,3.0,31,30.37,10.0,SSE,3.5,-,N/A,,Clear,160,2013-03-18 17:54:00
2:54 PM,33.1,1.0,26,30.33,10.0,SSE,3.5,-,N/A,,Clear,160,2013-03-18 18:54:00
3:54 PM,34.0,-0.9,23,30.31,10.0,Calm,Calm,-,N/A,,Clear,0,2013-03-18 19:54:00
4:54 PM,34.0,-0.9,23,30.28,10.0,Calm,Calm,-,N/A,,Clear,0,2013-03-18 20:54:00
5:54 PM,34.0,-0.0,24,30.26,10.0,SSW,3.5,-,N/A,,Clear,200,2013-03-18 21:54:00
6:54 PM,33.1,1.0,26,30.25,10.0,Calm,Calm,-,N/A,,Clear,0,2013-03-18 22:54:00
7:54 PM,32.0,6.1,34,30.23,10.0,Calm,Calm,-,N/A,,Mostly Cloudy,0,2013-03-18 23:54:00
8:54 PM,30.9,9.0,40,30.23,10.0,Calm,Calm,-,N/A,,Overcast,0,2013-03-19 00:54:00
9:54 PM,33.1,5.0,31,30.22,10.0,Variable,4.6,-,N/A,,Overcast,0,2013-03-19 01:54:00
10:54 PM,28.0,18.0,66,30.24,7.0,SSE,6.9,-,0.00,Snow,Light Snow,160,2013-03-19 02:54:00
11:11 PM,26.6,19.4,74,30.20,2.5,SE,10.4,-,0.00,Snow,Light Snow,140,2013-03-19 03:11:00
11:37 PM,26.6,21.2,80,30.20,1.5,SE,5.8,-,0.00,Snow,Light Snow,140,2013-03-19 03:37:00